2022/10/22 23:42:00+0000,-36.25,-45.90,-33.64,-50.38,-53.55,-54.97
2022/10/22 23:42:52+0000,-36.24,-46.49,-34.04,-49.47,-53.02,-54.73
2022/10/22 23:43:44+0000,-37.96,-46.79,-34.52,-50.56,-51.86,-54.96
2022/10/22 23:44:36+0000,-35.46,-47.15,-33.67,-51.01,-53.50,-54.64
2022/10/22 23:45:28+0000,-36.31,-46.59,-34.06,-49.90,-52.83,-55.22
2022/10/22 23:46:20+0000,-37.18,-46.31,-33.77,-51.52,-52.77,-55.60
2022/10/22 23:47:12+0000,-36.86,-46.49,-33.75,-50.18,-53.28,-55.31
2022/10/22 23:48:04+0000,-36.95,-45.18,-33.69,-51.18,-53.16,-55.35
2022/10/22 23:48:56+0000,-36.24,-45.22,-33.02,-49.20,-53.54,-55.28
2022/10/22 23:49:49+0000,-36.96,-46.10,-33.72,-50.13,-52.17,-54.51
2022/10/22 23:50:41+0000,-37.01,-46.22,-33.80,-49.06,-53.39,-54.68
2022/10/22 23:51:41+0000,-36.75,-46.01,-33.93,-49.91,-53.42,-55.59
2022/10/22 23:52:33+0000,-36.64,-46.80,-33.87,-45.35,-52.68,-55.14
2022/10/22 23:53:25+0000,-36.45,-47.48,-34.34,-49.34,-52.59,-54.70
2022/10/22 23:54:17+0000,-36.05,-46.91,-34.09,-50.93,-52.55,-54.91
2022/10/22 23:55:09+0000,-37.13,-47.13,-34.67,-50.42,-52.95,-55.33
2022/10/22 23:56:01+0000,-36.05,-47.32,-33.89,-50.18,-52.79,-54.50
2022/10/22 23:56:53+0000,-36.69,-47.73,-34.03,-50.43,-51.83,-55.00
2022/10/22 23:57:45+0000,-36.24,-46.19,-33.75,-48.84,-52.47,-54.74
2022/10/22 23:58:37+0000,-36.32,-46.99,-33.82,-47.90,-52.11,-54.53
2022/10/22 23:59:29+0000,-35.89,-46.63,-33.51,-49.89,-53.21,-54.97
2022/10/23 00:00:21+0000,-36.17,-46.91,-33.45,-49.24,-52.81,-54.36
2022/10/23 00:01:25+0000,-35.50,-47.75,-33.98,-49.92,-53.21,-55.16
2022/10/23 00:02:17+0000,-36.60,-45.81,-34.47,-50.98,-52.84,-54.93
2022/10/23 00:03:09+0000,-36.36,-46.04,-33.87,-51.12,-52.97,-54.79
2022/10/23 00:04:01+0000,-36.37,-45.38,-33.73,-49.50,-52.54,-54.41
2022/10/23 00:04:54+0000,-35.97,-45.47,-33.86,-49.87,-53.26,-54.27
2022/10/23 00:05:46+0000,-35.71,-46.87,-33.35,-49.88,-51.83,-55.07
2022/10/23 00:06:38+0000,-36.28,-46.25,-33.77,-50.64,-52.70,-54.49
2022/10/23 00:07:30+0000,-36.54,-46.66,-33.99,-49.75,-51.91,-53.92
2022/10/23 00:08:22+0000,-35.91,-46.88,-33.56,-49.27,-52.93,-54.71
2022/10/23 00:09:14+0000,-35.79,-44.74,-34.17,-50.09,-53.97,-54.80
2022/10/23 00:10:06+0000,-36.37,-46.45,-33.79,-49.62,-53.77,-54.91
2022/10/23 00:11:07+0000,-36.33,-48.23,-33.92,-49.65,-53.57,-54.69
2022/10/23 00:11:59+0000,-35.85,-45.89,-34.15,-49.51,-52.91,-55.22
2022/10/23 00:12:51+0000,-36.04,-48.65,-33.96,-48.80,-53.50,-54.42
2022/10/23 00:13:43+0000,-36.14,-46.03,-33.55,-50.79,-54.40,-54.67
2022/10/23 00:14:35+0000,-36.29,-47.74,-33.20,-50.88,-53.30,-54.74
2022/10/23 00:15:27+0000,-36.74,-47.84,-33.79,-49.27,-53.45,-54.57
2022/10/23 00:16:19+0000,-36.64,-47.26,-33.96,-50.56,-53.76,-54.48
2022/10/23 00:17:11+0000,-36.08,-45.55,-33.32,-50.90,-54.24,-54.83
2022/10/23 00:18:03+0000,-36.48,-47.92,-33.49,-50.27,-53.83,-54.70
2022/10/23 00:18:55+0000,-36.95,-47.39,-33.33,-49.08,-54.42,-54.65
2022/10/23 00:19:47+0000,-36.70,-46.84,-33.34,-50.27,-53.84,-54.83
2022/10/23 00:20:39+0000,-36.60,-47.57,-33.21,-51.04,-54.09,-54.75
2022/10/23 00:21:37+0000,-36.51,-47.03,-33.23,-50.34,-50.57,-54.03
2022/10/23 00:22:29+0000,-35.92,-47.32,-32.95,-49.51,-53.01,-54.00
2022/10/23 00:23:21+0000,-36.10,-47.94,-33.78,-48.20,-50.81,-51.24
2022/10/23 00:24:13+0000,-36.23,-47.14,-33.75,-49.85,-53.15,-54.15
2022/10/23 00:25:06+0000,-37.29,-48.03,-33.67,-50.60,-52.14,-53.75
2022/10/23 00:25:58+0000,-35.49,-47.46,-34.04,-50.59,-52.40,-54.00
2022/10/23 00:26:50+0000,-36.16,-46.85,-33.18,-52.04,-53.00,-53.97
2022/10/23 00:27:42+0000,-37.21,-47.48,-33.85,-50.89,-52.60,-54.28
2022/10/23 00:28:34+0000,-35.74,-47.28,-33.20,-51.18,-52.35,-53.80
2022/10/23 00:29:26+0000,-35.54,-46.80,-33.03,-49.97,-52.96,-53.67
2022/10/23 00:30:18+0000,-36.22,-47.99,-33.71,-50.89,-53.07,-54.35
2022/10/23 00:31:19+0000,-36.01,-46.38,-33.80,-52.00,-52.95,-54.25
2022/10/23 00:32:11+0000,-36.76,-46.55,-33.69,-49.82,-52.83,-54.08
2022/10/23 00:33:03+0000,-36.39,-47.19,-33.12,-51.38,-52.90,-54.50
2022/10/23 00:33:55+0000,-36.89,-46.17,-33.07,-51.26,-53.20,-54.04
2022/10/23 00:34:47+0000,-36.07,-46.24,-32.93,-50.82,-53.05,-54.90
2022/10/23 00:35:39+0000,-35.77,-47.30,-33.56,-50.64,-53.15,-54.58
2022/10/23 00:36:31+0000,-36.41,-46.11,-33.68,-49.27,-53.86,-55.58
2022/10/23 00:37:23+0000,-35.79,-46.34,-32.96,-50.97,-53.48,-54.77
2022/10/23 00:38:15+0000,-35.08,-46.14,-33.21,-50.60,-53.64,-55.46
2022/10/23 00:39:07+0000,-35.36,-47.23,-33.18,-51.62,-53.27,-55.71
2022/10/23 00:39:59+0000,-35.78,-46.59,-32.91,-49.39,-53.64,-55.81
2022/10/23 00:40:51+0000,-36.30,-48.01,-33.72,-51.13,-53.18,-55.30
2022/10/23 00:41:50+0000,-35.22,-46.49,-32.96,-52.74,-53.10,-55.45
2022/10/23 00:42:42+0000,-35.95,-45.36,-33.61,-51.58,-53.03,-55.85
2022/10/23 00:43:34+0000,-36.65,-45.44,-33.19,-51.77,-53.54,-55.01
2022/10/23 00:44:26+0000,-35.92,-46.50,-32.43,-50.91,-53.67,-55.18
2022/10/23 00:45:18+0000,-37.02,-46.01,-33.17,-52.23,-53.19,-55.46
2022/10/23 00:46:10+0000,-36.08,-45.14,-33.07,-53.32,-54.41,-56.07
2022/10/23 00:47:02+0000,-35.89,-44.95,-33.49,-49.16,-53.39,-55.73
2022/10/23 00:47:55+0000,-35.33,-46.52,-32.66,-47.88,-54.05,-55.43
2022/10/23 00:48:47+0000,-36.02,-46.49,-33.11,-51.53,-51.78,-55.15
2022/10/23 00:49:39+0000,-35.69,-46.31,-32.85,-51.08,-51.98,-55.25
2022/10/23 00:50:31+0000,-36.12,-45.95,-33.40,-48.10,-51.91,-55.62
2022/10/23 00:51:30+0000,-35.72,-45.98,-33.47,-47.50,-52.14,-55.57
2022/10/23 00:52:22+0000,-35.95,-44.14,-33.29,-45.66,-51.97,-55.34
2022/10/23 00:53:14+0000,-34.88,-44.30,-33.07,-51.10,-51.62,-55.14
2022/10/23 00:54:06+0000,-36.75,-45.91,-33.69,-52.18,-51.04,-55.19
2022/10/23 00:54:58+0000,-35.81,-45.81,-33.20,-49.26,-51.12,-55.99
2022/10/23 00:55:50+0000,-35.18,-46.59,-32.65,-51.12,-51.77,-53.80
2022/10/23 00:56:42+0000,-34.97,-46.10,-33.38,-51.26,-52.36,-54.71
2022/10/23 00:57:34+0000,-35.84,-45.76,-33.69,-50.59,-51.80,-55.14
2022/10/23 00:58:26+0000,-34.60,-44.45,-33.08,-49.22,-51.23,-53.44
2022/10/23 00:59:18+0000,-35.43,-44.73,-33.03,-52.45,-49.71,-52.51
2022/10/23 01:00:10+0000,-36.32,-45.98,-32.71,-50.80,-50.94,-53.59
2022/10/23 01:01:09+0000,-36.44,-44.64,-32.49,-50.07,-50.74,-53.89
2022/10/23 01:02:01+0000,-36.00,-44.55,-33.47,-49.60,-51.54,-53.47
2022/10/23 01:02:53+0000,-36.24,-44.01,-32.79,-50.11,-50.85,-53.80
2022/10/23 01:03:45+0000,-36.91,-44.28,-33.02,-51.47,-50.87,-54.04
2022/10/23 01:04:38+0000,-35.45,-44.46,-32.91,-51.07,-51.20,-54.36
2022/10/23 01:05:30+0000,-36.00,-44.80,-32.98,-49.79,-51.01,-53.94
2022/10/23 01:06:22+0000,-35.91,-44.49,-33.73,-49.45,-50.77,-53.91
2022/10/23 01:07:14+0000,-36.54,-42.61,-32.98,-50.63,-51.26,-53.43
2022/10/23 01:08:06+0000,-35.18,-45.14,-33.42,-51.16,-51.36,-53.48
2022/10/23 01:08:58+0000,-36.19,-43.90,-33.67,-51.12,-50.67,-53.30
2022/10/23 01:09:50+0000,-36.26,-44.71,-32.88,-50.59,-50.55,-52.10
2022/10/23 01:10:42+0000,-35.14,-43.46,-33.52,-50.98,-51.23,-53.48
2022/10/23 01:11:42+0000,-36.58,-43.52,-33.40,-50.20,-51.12,-53.21
2022/10/23 01:12:34+0000,-35.95,-44.96,-32.99,-51.74,-50.65,-53.26
2022/10/23 01:13:26+0000,-36.34,-40.79,-32.99,-51.21,-51.03,-53.09
2022/10/23 01:14:18+0000,-35.83,-44.72,-33.31,-52.18,-50.74,-52.92
2022/10/23 01:15:10+0000,-36.27,-43.60,-33.15,-51.51,-50.57,-53.67
2022/10/23 01:16:02+0000,-35.20,-44.86,-33.64,-50.49,-50.13,-53.05
2022/10/23 01:16:54+0000,-35.20,-43.86,-33.72,-51.02,-50.73,-53.23
2022/10/23 01:17:46+0000,-36.68,-43.77,-33.32,-50.80,-50.35,-52.79
2022/10/23 01:18:38+0000,-35.92,-43.18,-32.89,-47.51,-50.77,-52.57
2022/10/23 01:19:30+0000,-35.89,-43.27,-33.39,-50.99,-50.61,-53.18
2022/10/23 01:20:23+0000,-34.83,-44.93,-32.98,-51.45,-51.85,-52.89
2022/10/23 01:21:22+0000,-34.59,-44.20,-33.19,-50.49,-51.46,-53.19
2022/10/23 01:22:14+0000,-36.26,-43.54,-33.69,-49.03,-51.80,-52.58
2022/10/23 01:23:06+0000,-35.50,-44.59,-32.94,-46.62,-51.54,-52.84
2022/10/23 01:23:58+0000,-35.24,-44.44,-33.63,-51.98,-51.30,-52.88
2022/10/23 01:24:50+0000,-35.05,-43.23,-34.02,-52.24,-51.48,-52.99
2022/10/23 01:25:42+0000,-35.86,-43.32,-33.89,-48.56,-51.99,-52.76
2022/10/23 01:26:34+0000,-34.97,-44.06,-33.78,-52.51,-52.17,-53.06
2022/10/23 01:27:26+0000,-35.54,-43.84,-34.08,-51.38,-51.76,-52.75
2022/10/23 01:28:18+0000,-36.30,-43.73,-33.93,-49.52,-51.61,-52.03
2022/10/23 01:29:10+0000,-36.37,-43.29,-33.01,-50.15,-51.38,-52.57
2022/10/23 01:30:02+0000,-36.76,-44.47,-33.69,-51.27,-51.02,-53.08
2022/10/23 01:31:01+0000,-35.95,-43.88,-32.42,-50.51,-51.61,-52.78
2022/10/23 01:31:53+0000,-34.95,-44.03,-34.01,-51.10,-53.95,-53.38
2022/10/23 01:32:46+0000,-34.61,-43.91,-33.68,-45.97,-52.06,-52.90
2022/10/23 01:33:38+0000,-36.37,-45.06,-33.42,-40.62,-53.58,-53.08
2022/10/23 01:34:30+0000,-35.45,-42.64,-34.24,-51.17,-53.13,-52.83
2022/10/23 01:35:22+0000,-34.88,-45.27,-33.45,-51.04,-53.67,-52.39
2022/10/23 01:36:14+0000,-34.61,-44.54,-33.75,-45.65,-53.48,-53.60
2022/10/23 01:37:06+0000,-35.42,-44.28,-33.15,-45.33,-53.06,-51.69
2022/10/23 01:37:58+0000,-35.18,-45.27,-34.10,-50.50,-52.88,-52.43
2022/10/23 01:38:50+0000,-34.55,-44.24,-33.91,-52.21,-52.92,-53.07
2022/10/23 01:39:42+0000,-35.45,-44.19,-33.03,-40.61,-53.47,-54.00
2022/10/23 01:40:34+0000,-35.74,-44.74,-33.58,-52.25,-53.40,-53.98
2022/10/23 01:41:33+0000,-37.17,-45.22,-33.41,-51.69,-53.48,-53.98
2022/10/23 01:42:25+0000,-33.87,-43.28,-33.27,-52.23,-52.42,-53.45
2022/10/23 01:43:17+0000,-35.25,-44.43,-33.71,-42.69,-54.24,-53.98
2022/10/23 01:44:09+0000,-35.45,-44.94,-33.41,-48.84,-53.73,-54.10
2022/10/23 01:45:01+0000,-36.02,-44.67,-33.54,-51.88,-53.68,-53.67
2022/10/23 01:45:53+0000,-34.45,-46.24,-33.71,-52.56,-53.56,-54.24
2022/10/23 01:46:45+0000,-36.17,-45.17,-34.03,-40.59,-53.05,-54.47
2022/10/23 01:47:37+0000,-36.14,-46.87,-33.72,-50.15,-53.55,-54.80
2022/10/23 01:48:30+0000,-35.71,-44.99,-33.90,-51.91,-54.73,-54.30
2022/10/23 01:49:22+0000,-34.58,-45.83,-33.91,-52.45,-54.15,-54.47
2022/10/23 01:50:14+0000,-36.61,-43.34,-33.63,-45.85,-54.25,-54.28
2022/10/23 01:51:12+0000,-35.79,-44.44,-33.60,-44.68,-54.22,-53.82
2022/10/23 01:52:04+0000,-35.32,-45.56,-33.37,-52.52,-54.22,-53.73
2022/10/23 01:52:56+0000,-35.49,-45.70,-33.59,-52.22,-53.63,-54.44
2022/10/23 01:53:48+0000,-35.38,-43.66,-33.97,-48.36,-54.30,-53.64
2022/10/23 01:54:40+0000,-36.70,-43.95,-33.47,-49.75,-54.60,-53.67
2022/10/23 01:55:32+0000,-35.13,-45.96,-33.75,-52.30,-54.32,-54.54
2022/10/23 01:56:25+0000,-33.74,-44.27,-33.71,-52.52,-54.38,-54.78
2022/10/23 01:57:17+0000,-34.68,-45.08,-33.24,-50.29,-54.58,-54.60
2022/10/23 01:58:09+0000,-36.31,-45.33,-33.95,-51.81,-54.04,-54.03
2022/10/23 01:59:01+0000,-35.18,-43.68,-33.38,-51.95,-54.49,-53.85
2022/10/23 01:59:53+0000,-35.18,-45.71,-33.76,-51.41,-54.64,-54.16
2022/10/23 02:00:45+0000,-35.44,-44.31,-33.83,-51.94,-54.36,-53.91
2022/10/23 02:01:45+0000,-36.17,-44.27,-33.71,-52.54,-54.33,-53.60
2022/10/23 02:02:37+0000,-35.66,-45.25,-34.10,-52.28,-54.22,-54.35
2022/10/23 02:03:29+0000,-35.97,-45.77,-33.92,-52.35,-54.82,-54.36
2022/10/23 02:04:21+0000,-36.25,-45.10,-33.79,-51.83,-54.00,-54.51
2022/10/23 02:05:13+0000,-35.84,-43.26,-33.44,-52.26,-53.66,-53.45
2022/10/23 02:06:05+0000,-35.52,-43.11,-33.68,-51.89,-54.10,-53.67
2022/10/23 02:06:57+0000,-35.51,-42.79,-34.26,-51.03,-54.11,-53.03
2022/10/23 02:07:49+0000,-36.04,-45.39,-34.23,-52.34,-54.28,-54.06
2022/10/23 02:08:42+0000,-35.51,-42.55,-34.25,-51.80,-53.80,-53.27
2022/10/23 02:09:34+0000,-35.23,-43.79,-33.66,-52.29,-54.23,-54.54
2022/10/23 02:10:26+0000,-35.60,-43.70,-33.09,-52.64,-54.29,-54.45
2022/10/23 02:11:25+0000,-35.75,-42.03,-33.49,-52.52,-54.64,-54.09
2022/10/23 02:12:17+0000,-35.75,-44.67,-33.70,-53.00,-55.13,-54.52
2022/10/23 02:13:09+0000,-34.07,-45.33,-33.98,-52.84,-54.58,-53.83
2022/10/23 02:14:01+0000,-36.74,-45.27,-33.74,-52.66,-54.89,-53.74
2022/10/23 02:14:53+0000,-35.26,-44.59,-33.46,-53.28,-54.70,-54.66
2022/10/23 02:15:45+0000,-36.73,-42.38,-33.83,-53.12,-54.73,-52.75
2022/10/23 02:16:37+0000,-36.35,-44.70,-33.68,-52.53,-54.68,-53.43
2022/10/23 02:17:29+0000,-36.47,-44.23,-34.06,-52.79,-54.15,-54.36
2022/10/23 02:18:22+0000,-36.43,-45.00,-33.60,-52.77,-54.38,-53.63
2022/10/23 02:19:14+0000,-36.42,-43.96,-34.12,-52.20,-54.39,-53.72
2022/10/23 02:20:06+0000,-34.75,-44.23,-34.10,-52.74,-54.74,-54.42
2022/10/23 02:21:10+0000,-35.60,-44.48,-34.03,-51.95,-54.70,-53.91
2022/10/23 02:22:02+0000,-36.62,-44.49,-33.89,-52.30,-54.13,-54.04
2022/10/23 02:22:54+0000,-34.72,-44.08,-33.75,-52.57,-53.08,-53.51
2022/10/23 02:23:46+0000,-36.56,-43.88,-32.80,-51.52,-53.35,-52.46
2022/10/23 02:24:38+0000,-34.81,-44.80,-33.76,-53.09,-53.03,-53.63
2022/10/23 02:25:30+0000,-35.37,-44.86,-33.90,-52.19,-53.31,-53.33
2022/10/23 02:26:22+0000,-35.32,-45.00,-33.77,-52.15,-53.07,-53.53
2022/10/23 02:27:14+0000,-36.08,-43.67,-33.60,-51.84,-53.43,-53.36
2022/10/23 02:28:06+0000,-35.50,-45.35,-33.87,-52.72,-54.59,-54.02
2022/10/23 02:28:58+0000,-34.50,-43.25,-33.43,-52.66,-54.46,-53.54
2022/10/23 02:29:50+0000,-35.51,-43.57,-33.83,-51.73,-53.41,-53.87
2022/10/23 02:30:42+0000,-34.85,-42.91,-33.98,-52.36,-52.84,-52.13
2022/10/23 02:31:47+0000,-35.75,-43.76,-33.60,-51.58,-52.93,-53.11
2022/10/23 02:32:39+0000,-35.62,-43.43,-33.36,-51.68,-54.45,-53.43
2022/10/23 02:33:31+0000,-35.16,-42.65,-33.76,-51.70,-54.53,-53.55
2022/10/23 02:34:23+0000,-35.23,-44.32,-33.78,-51.47,-53.24,-54.14
2022/10/23 02:35:15+0000,-36.77,-44.30,-33.31,-51.98,-53.43,-53.13
2022/10/23 02:36:07+0000,-36.81,-44.39,-33.79,-52.07,-54.03,-53.64
2022/10/23 02:36:59+0000,-35.87,-44.30,-33.31,-51.59,-54.25,-53.41
2022/10/23 02:37:51+0000,-35.50,-44.90,-33.21,-52.24,-53.44,-53.77
2022/10/23 02:38:43+0000,-35.53,-44.10,-33.77,-51.93,-54.05,-53.97
2022/10/23 02:39:35+0000,-36.39,-44.78,-33.59,-52.55,-53.03,-54.08
2022/10/23 02:40:27+0000,-35.86,-44.23,-33.65,-52.83,-53.23,-53.73
2022/10/23 02:41:27+0000,-35.51,-43.95,-34.23,-52.62,-53.51,-53.70
2022/10/23 02:42:19+0000,-35.28,-44.57,-33.56,-51.82,-53.66,-53.82
2022/10/23 02:43:11+0000,-37.14,-44.68,-33.72,-51.93,-52.74,-53.23
2022/10/23 02:44:03+0000,-36.26,-44.85,-33.72,-52.27,-53.24,-53.38
2022/10/23 02:44:55+0000,-36.29,-44.63,-33.78,-52.92,-53.24,-53.39
2022/10/23 02:45:47+0000,-36.23,-44.70,-33.29,-52.30,-53.02,-53.28
2022/10/23 02:46:39+0000,-35.06,-45.16,-33.66,-52.31,-53.12,-53.99
2022/10/23 02:47:31+0000,-35.20,-44.81,-33.59,-52.04,-53.60,-53.65
2022/10/23 02:48:23+0000,-35.83,-45.61,-33.66,-52.22,-52.93,-53.98
2022/10/23 02:49:15+0000,-35.85,-44.07,-33.64,-53.30,-53.86,-53.47
2022/10/23 02:50:07+0000,-36.10,-45.64,-33.73,-51.77,-53.30,-53.54
2022/10/23 02:51:06+0000,-35.74,-45.67,-33.54,-51.73,-53.59,-54.08
2022/10/23 02:51:58+0000,-36.33,-43.93,-33.35,-52.45,-54.18,-54.56
2022/10/23 02:52:50+0000,-36.99,-43.75,-33.85,-52.42,-54.68,-53.94
2022/10/23 02:53:43+0000,-36.24,-44.92,-33.35,-52.51,-53.40,-54.18
2022/10/23 02:54:35+0000,-36.59,-45.29,-33.74,-52.88,-54.39,-54.28
2022/10/23 02:55:27+0000,-37.18,-44.23,-33.85,-53.56,-54.78,-53.90
2022/10/23 02:56:19+0000,-36.13,-44.27,-33.55,-52.65,-52.50,-53.71
2022/10/23 02:57:11+0000,-36.28,-44.63,-34.02,-52.36,-53.72,-53.68
2022/10/23 02:58:03+0000,-36.45,-45.04,-34.03,-52.73,-53.91,-54.98
2022/10/23 02:58:55+0000,-35.79,-44.72,-33.49,-52.85,-54.33,-54.34
2022/10/23 02:59:47+0000,-35.57,-44.51,-33.71,-52.95,-54.50,-55.23
2022/10/23 03:00:39+0000,-36.80,-44.76,-33.84,-52.15,-54.19,-55.10
2022/10/23 03:01:39+0000,-34.91,-45.38,-33.18,-51.96,-54.04,-54.83
2022/10/23 03:02:31+0000,-36.35,-44.65,-33.69,-52.95,-54.25,-55.77
2022/10/23 03:03:23+0000,-35.79,-43.60,-33.04,-52.00,-54.37,-54.80
2022/10/23 03:04:15+0000,-36.46,-44.71,-33.15,-51.81,-54.07,-55.68
2022/10/23 03:05:07+0000,-35.29,-44.47,-33.54,-52.60,-54.20,-54.77
2022/10/23 03:05:59+0000,-35.82,-44.56,-33.20,-52.25,-54.90,-55.24
2022/10/23 03:06:51+0000,-36.53,-45.13,-33.00,-52.61,-54.95,-55.63
2022/10/23 03:07:43+0000,-34.76,-43.71,-33.89,-52.91,-53.86,-55.36
2022/10/23 03:08:35+0000,-36.43,-45.19,-33.34,-52.80,-54.45,-54.76
2022/10/23 03:09:27+0000,-34.97,-44.36,-33.40,-52.12,-54.32,-55.29
2022/10/23 03:10:19+0000,-35.51,-44.52,-33.36,-52.87,-54.65,-55.95
2022/10/23 03:11:18+0000,-35.98,-43.21,-33.09,-52.49,-54.44,-54.34
2022/10/23 03:12:11+0000,-36.24,-44.14,-33.59,-52.17,-54.63,-55.11
2022/10/23 03:13:03+0000,-36.02,-43.80,-33.37,-52.11,-54.17,-54.63
2022/10/23 03:13:55+0000,-35.98,-44.48,-33.15,-52.27,-54.58,-54.88
2022/10/23 03:14:47+0000,-36.26,-44.12,-32.70,-52.72,-54.07,-54.90
2022/10/23 03:15:39+0000,-33.73,-42.76,-33.41,-51.79,-54.77,-54.24
2022/10/23 03:16:31+0000,-34.97,-43.93,-33.41,-52.74,-53.98,-55.51
2022/10/23 03:17:23+0000,-34.78,-44.99,-32.71,-51.36,-53.99,-54.78
2022/10/23 03:18:15+0000,-35.15,-43.52,-32.91,-52.20,-54.41,-54.33
2022/10/23 03:19:07+0000,-34.24,-44.14,-33.56,-52.03,-54.31,-54.77
2022/10/23 03:19:59+0000,-36.09,-44.02,-33.30,-51.74,-54.24,-54.65
2022/10/23 03:20:51+0000,-34.87,-45.08,-33.54,-52.56,-54.17,-55.41
2022/10/23 03:21:51+0000,-32.72,-45.06,-33.81,-52.48,-54.32,-54.92
2022/10/23 03:22:43+0000,-35.54,-43.69,-33.35,-52.39,-54.16,-55.83
2022/10/23 03:23:35+0000,-35.08,-45.26,-33.31,-53.10,-54.35,-54.41
2022/10/23 03:24:27+0000,-35.28,-45.23,-34.08,-52.66,-53.97,-54.99
2022/10/23 03:25:19+0000,-33.63,-44.19,-33.83,-52.07,-53.99,-54.63
2022/10/23 03:26:11+0000,-35.62,-44.31,-33.30,-51.75,-54.25,-54.91
2022/10/23 03:27:03+0000,-35.60,-43.90,-33.84,-52.03,-53.73,-54.84
2022/10/23 03:27:55+0000,-34.24,-44.05,-33.62,-52.46,-53.52,-55.01
2022/10/23 03:28:47+0000,-35.90,-43.04,-33.61,-52.17,-52.31,-53.20
2022/10/23 03:29:39+0000,-36.36,-44.49,-33.59,-52.51,-51.67,-53.63
2022/10/23 03:30:31+0000,-36.06,-44.91,-33.03,-52.58,-53.59,-53.57
2022/10/23 03:31:31+0000,-35.97,-45.12,-33.46,-52.46,-53.74,-53.04
2022/10/23 03:32:23+0000,-33.23,-45.85,-33.47,-52.87,-53.98,-53.02
2022/10/23 03:33:15+0000,-36.56,-43.99,-33.64,-51.61,-54.23,-53.32
2022/10/23 03:34:07+0000,-35.92,-44.82,-33.53,-52.11,-51.96,-52.73
2022/10/23 03:34:59+0000,-33.46,-45.82,-33.50,-52.19,-53.49,-54.53
2022/10/23 03:35:51+0000,-35.84,-44.48,-33.39,-52.09,-54.42,-55.49
2022/10/23 03:36:43+0000,-35.45,-43.16,-33.63,-51.53,-53.76,-55.38
2022/10/23 03:37:35+0000,-35.83,-45.53,-33.95,-52.38,-54.41,-55.18
2022/10/23 03:38:27+0000,-34.36,-45.86,-33.94,-53.15,-54.41,-55.21
2022/10/23 03:39:19+0000,-35.84,-44.64,-32.90,-52.05,-54.87,-55.99
2022/10/23 03:40:11+0000,-36.55,-43.37,-33.89,-52.70,-54.78,-55.08
2022/10/23 03:41:11+0000,-37.32,-42.62,-33.39,-52.60,-54.76,-55.33
2022/10/23 03:42:03+0000,-35.36,-45.17,-34.41,-52.22,-55.07,-55.08
2022/10/23 03:42:55+0000,-35.75,-45.27,-33.83,-52.90,-54.66,-54.69
2022/10/23 03:43:47+0000,-36.25,-43.73,-33.80,-53.19,-54.40,-55.22
2022/10/23 03:44:39+0000,-36.16,-42.69,-33.56,-52.62,-54.68,-55.50
2022/10/23 03:45:31+0000,-36.75,-45.01,-33.67,-52.69,-54.82,-54.91
2022/10/23 03:46:23+0000,-36.01,-44.79,-33.85,-52.24,-54.80,-55.36
2022/10/23 03:47:15+0000,-35.68,-44.33,-34.01,-52.23,-54.43,-55.13
2022/10/23 03:48:07+0000,-35.89,-46.33,-33.53,-52.66,-54.12,-55.20
2022/10/23 03:48:59+0000,-35.45,-47.39,-34.01,-53.32,-55.32,-55.81
2022/10/23 03:49:51+0000,-36.14,-46.23,-33.61,-53.14,-55.11,-55.69
2022/10/23 03:50:43+0000,-35.41,-41.84,-34.16,-53.59,-55.22,-55.64
2022/10/23 03:51:42+0000,-36.03,-45.02,-33.21,-53.43,-55.55,-55.79
2022/10/23 03:52:34+0000,-36.28,-47.19,-34.05,-53.88,-54.90,-55.02
2022/10/23 03:53:26+0000,-36.07,-48.50,-33.65,-52.82,-55.07,-55.47
2022/10/23 03:54:18+0000,-35.03,-45.63,-33.70,-52.82,-54.84,-55.85
2022/10/23 03:55:11+0000,-35.46,-44.66,-33.89,-52.86,-55.22,-55.17
2022/10/23 03:56:03+0000,-36.34,-48.66,-34.00,-52.88,-55.04,-55.52
2022/10/23 03:56:55+0000,-36.44,-47.93,-33.65,-52.94,-54.61,-55.69
2022/10/23 03:57:47+0000,-36.40,-44.85,-33.94,-53.29,-54.85,-55.68
2022/10/23 03:58:39+0000,-35.26,-43.44,-33.66,-53.21,-54.65,-54.62
2022/10/23 03:59:31+0000,-35.87,-48.34,-34.13,-53.05,-54.70,-55.35
2022/10/23 04:00:23+0000,-33.87,-48.74,-33.48,-53.52,-54.73,-54.94
2022/10/23 04:01:26+0000,-35.75,-47.87,-33.65,-53.99,-55.01,-54.57
2022/10/23 04:02:18+0000,-35.21,-43.54,-33.38,-53.48,-54.49,-55.67
2022/10/23 04:03:10+0000,-36.10,-45.12,-33.20,-53.61,-54.88,-54.87
2022/10/23 04:04:02+0000,-36.44,-48.57,-33.33,-53.27,-54.15,-55.05
2022/10/23 04:04:54+0000,-36.71,-48.17,-34.04,-53.35,-54.60,-55.11
2022/10/23 04:05:47+0000,-35.10,-45.33,-33.40,-53.13,-54.84,-55.61
2022/10/23 04:06:39+0000,-35.44,-46.84,-33.67,-52.97,-54.46,-54.39
2022/10/23 04:07:31+0000,-36.51,-47.80,-33.21,-52.91,-55.24,-54.98
2022/10/23 04:08:23+0000,-37.10,-47.57,-33.94,-52.71,-54.76,-55.24
2022/10/23 04:09:15+0000,-36.45,-47.33,-33.71,-53.26,-53.28,-52.82
2022/10/23 04:10:07+0000,-37.60,-47.63,-33.57,-53.15,-53.83,-53.94
2022/10/23 04:11:06+0000,-36.59,-48.79,-33.32,-53.55,-53.36,-54.06
2022/10/23 04:11:58+0000,-36.44,-49.00,-33.08,-52.82,-54.09,-53.95
2022/10/23 04:12:50+0000,-35.07,-48.60,-33.69,-52.33,-53.95,-54.34
2022/10/23 04:13:42+0000,-35.30,-44.58,-33.37,-53.45,-53.87,-54.28
2022/10/23 04:14:34+0000,-37.13,-48.36,-33.25,-53.80,-53.88,-54.24
2022/10/23 04:15:27+0000,-34.91,-48.76,-33.25,-52.97,-53.61,-54.36
2022/10/23 04:16:19+0000,-34.49,-45.06,-33.54,-52.54,-53.27,-53.79
2022/10/23 04:17:11+0000,-35.58,-47.00,-33.29,-53.79,-54.03,-54.03
2022/10/23 04:18:03+0000,-36.39,-48.16,-34.03,-53.30,-53.58,-54.11
2022/10/23 04:18:55+0000,-36.40,-48.19,-33.68,-52.56,-53.77,-54.56
2022/10/23 04:19:47+0000,-35.55,-45.56,-33.12,-51.99,-54.09,-53.64
2022/10/23 04:20:39+0000,-35.88,-46.96,-34.08,-51.97,-53.39,-53.54
2022/10/23 04:21:38+0000,-35.53,-46.85,-33.56,-52.88,-51.01,-53.09
2022/10/23 04:22:30+0000,-34.72,-47.49,-33.64,-40.69,-51.63,-52.55
2022/10/23 04:23:22+0000,-34.58,-48.08,-33.81,-40.78,-52.20,-52.76
2022/10/23 04:24:14+0000,-35.23,-45.70,-34.01,-41.25,-52.20,-53.12
2022/10/23 04:25:06+0000,-34.21,-47.45,-33.32,-41.23,-52.51,-53.04
2022/10/23 04:25:58+0000,-34.84,-45.27,-34.15,-40.04,-51.76,-53.14
2022/10/23 04:26:51+0000,-34.71,-47.11,-33.77,-39.73,-51.41,-52.32
2022/10/23 04:27:43+0000,-35.18,-45.19,-33.48,-40.43,-51.48,-52.47
2022/10/23 04:28:35+0000,-34.47,-45.52,-34.13,-39.61,-51.10,-52.71
2022/10/23 04:29:27+0000,-34.48,-45.74,-34.26,-41.44,-50.55,-53.19
2022/10/23 04:30:19+0000,-35.52,-44.52,-33.56,-38.58,-52.95,-53.35
2022/10/23 04:31:18+0000,-34.55,-43.74,-34.20,-41.74,-50.97,-52.54
2022/10/23 04:32:10+0000,-35.25,-43.80,-33.65,-41.40,-51.92,-53.27
2022/10/23 04:33:02+0000,-35.06,-45.26,-33.40,-42.13,-51.52,-53.37
2022/10/23 04:33:54+0000,-35.57,-46.35,-33.07,-41.78,-50.94,-53.00
2022/10/23 04:34:46+0000,-34.11,-44.90,-33.53,-42.20,-50.82,-53.17
2022/10/23 04:35:38+0000,-34.73,-45.65,-34.36,-42.24,-50.58,-52.81
2022/10/23 04:36:30+0000,-34.12,-45.66,-33.76,-41.31,-50.86,-53.54
2022/10/23 04:37:22+0000,-34.98,-47.31,-34.42,-40.44,-50.53,-53.81
2022/10/23 04:38:14+0000,-35.65,-45.22,-34.29,-40.87,-50.45,-52.73
2022/10/23 04:39:07+0000,-34.75,-45.50,-34.18,-41.31,-49.81,-53.06
2022/10/23 04:39:59+0000,-34.33,-45.54,-34.53,-42.75,-49.81,-52.97
2022/10/23 04:40:51+0000,-34.38,-45.13,-34.51,-40.64,-49.57,-53.03
2022/10/23 04:41:50+0000,-35.12,-43.93,-34.52,-41.73,-49.65,-53.40
2022/10/23 04:42:42+0000,-34.32,-43.42,-34.02,-40.55,-50.15,-53.54
2022/10/23 04:43:34+0000,-34.70,-44.59,-35.16,-41.62,-50.47,-53.49
2022/10/23 04:44:26+0000,-33.35,-45.68,-33.99,-40.88,-50.45,-54.06
2022/10/23 04:45:18+0000,-34.00,-44.83,-33.49,-40.85,-50.57,-53.30
2022/10/23 04:46:10+0000,-34.10,-43.90,-33.94,-40.94,-50.46,-53.25
2022/10/23 04:47:02+0000,-34.24,-44.78,-34.09,-41.53,-50.59,-53.75
2022/10/23 04:47:54+0000,-30.90,-46.37,-33.92,-41.22,-50.70,-53.46
2022/10/23 04:48:46+0000,-34.66,-44.95,-33.36,-40.52,-50.91,-53.86
2022/10/23 04:49:38+0000,-34.69,-43.98,-33.33,-41.20,-51.59,-51.32
2022/10/23 04:50:31+0000,-35.93,-45.87,-33.49,-41.04,-50.69,-53.18
2022/10/23 04:51:30+0000,-35.22,-45.23,-33.76,-40.33,-50.93,-53.89
2022/10/23 04:52:22+0000,-34.12,-45.71,-33.82,-40.30,-50.74,-53.25
2022/10/23 04:53:14+0000,-34.99,-44.61,-34.06,-40.20,-51.43,-53.05
2022/10/23 04:54:06+0000,-34.73,-45.73,-34.18,-40.92,-50.50,-53.05
2022/10/23 04:54:58+0000,-34.75,-43.81,-33.83,-42.65,-50.69,-53.40
2022/10/23 04:55:50+0000,-34.48,-45.77,-34.32,-40.42,-50.97,-53.01